Track STARLINK-3709 now! 10-day predictions STARLINK-3709 is classified as:
1 52102U 22029Q 22186.58334491 -.00023401 00000-0 -14565-2 0 9996 2 52102 53.2165 348.5423 0001844 53.3093 322.6440 15.08851354 1308